Content
SEND FEEDBACK

Daily
Averages
Monthly
Summary
Spain

PUERTO DEL ROSARIO, SPAIN


Home > Europe > Spain
Elevation: 98 feet     Latitude: 28 27N     Longitude: 013 52W

WEATHER
 
SELECT A DAY
Number of Records: 220,727;   Date Range: 7/1/96 - 11/22/14
 
SHARE

PRINT THIS DATA

[ ← Previous Day ]
WEATHER ALMANAC - MAY 10, 2013
[ Next Day → ]
[ °C ]   °F
Weather ElementAverageHighLow
Temperature75 °F82.4 °F (3:00 pm)68 °F (6:30 am)
Dewpoint51.5 °F64.4 °F (9:30 pm)28.4 °F (8:30 am)
Humidity48.6 %83 % (9:30 pm)16 % (11:00 am)
Barometer30.02 in30.06 in (11:30 am)29.98 in (4:00 pm)
Wind Speed13.4 mph19.6 mph (5:00 pm)
Weather ElementAverage
Wind DirectionE (90.6 °)

Weather ElementTotal
Precipitation---
Cooling Degree Days10.2 (Base 65)
Growing Degree Days25.2 (Base 50)
Averaged from 32 records on May 10, 2013
WEATHER CONDITIONS BREAKOUT
WIND DIRECTION BREAKOUT
WEATHER BY HOUR - MAY 10, 2013
[ °C ]   °F
Local TimeTemperatureDewpointHumidityBarometerVisibilityWind DirectionWind SpeedGust SpeedPrecipitationEventsConditions
6:30 AM68.0 °F35.6 °F30 %30.01 inNorth (350°)10.4 mphClear
7:00 AM69.8 °F33.8 °F27 %30.01 inNNW (340°)10.4 mphClear
7:30 AM69.8 °F32.0 °F25 %30.01 inNorth (350°)10.4 mphClear
8:00 AM69.8 °F30.2 °F23 %30.01 inNorth (350°)9.2 mphClear
8:30 AM73.4 °F28.4 °F19 %30.04 inNorth (350°)9.2 mphClear
9:00 AM75.2 °F28.4 °F18 %30.04 inNorth (10°)10.4 mphClear
10:00 AM78.8 °F33.8 °F20 %30.04 inNNE (30°)11.5 mphClear
11:00 AM80.6 °F30.2 °F16 %30.04 inNE (40°)12.7 mphClear
11:30 AM80.6 °F32.0 °F17 %30.06 inNE (40°)12.7 mphClear
12:00 PM80.6 °F39.2 °F23 %30.06 inNE (40°)11.5 mphClear
12:30 PM77.0 °F53.6 °F44 %30.06 inNE (50°)11.5 mphClear
1:00 PM78.8 °F57.2 °F47 %30.04 inNE (40°)13.8 mphClear
1:30 PM78.8 °F51.8 °F39 %30.04 inNE (50°)12.7 mphClear
2:00 PM78.8 °F60.8 °F54 %30.04 inNE (40°)15.0 mphClear
2:30 PM78.8 °F62.6 °F57 %30.01 inNE (40°)16.1 mphClear
3:00 PM82.4 °F57.2 °F42 %30.01 inNNE (30°)16.1 mphClear
3:30 PM78.8 °F60.8 °F54 %30.01 inNE (40°)17.3 mphClear
4:00 PM77.0 °F62.6 °F61 %29.98 inENE (60°)15.0 mphClear
4:30 PM77.0 °F62.6 °F61 %29.98 inENE (70°)17.3 mphClear
5:00 PM77.0 °F62.6 °F61 %29.98 inNE (50°)19.6 mphClear
5:30 PM75.2 °F59.0 °F57 %29.98 inENE (60°)16.1 mphClear
6:00 PM75.2 °F59.0 °F57 %29.98 inNE (50°)6.9 mphClear
6:30 PM75.2 °F60.8 °F61 %29.98 inENE (60°)13.8 mphClear
7:00 PM73.4 °F62.6 °F69 %29.98 inNE (50°)18.4 mphClear
7:30 PM73.4 °F62.6 °F69 %29.98 inNE (50°)19.6 mphClear
8:00 PM71.6 °F62.6 °F73 %29.98 inNE (40°)18.4 mphClear
8:30 PM71.6 °F62.6 °F73 %30.01 inNE (40°)16.1 mphClear
9:00 PM71.6 °F62.6 °F73 %30.01 inNE (40°)11.5 mphClear
9:30 PM69.8 °F64.4 °F83 %30.01 inENE (60°)10.4 mphClear
10:00 PM69.8 °F62.6 °F78 %30.04 inNE (40°)11.5 mphClear
10:30 PM71.6 °F57.2 °F60 %30.04 inNNE (20°)12.7 mphClear
11:00 PM69.8 °F57.2 °F64 %30.04 inNNE (20°)9.2 mphClear
Hourly data recorded from GCFV, located miles away from Puerto del Rosario, Spain







STORIES FROM OUR PARTNERS